RSQA2 Weather Reports


Display with metric or nautical units.
time (UTC)temp
F
wind
direction
speed
MPH
gust
MPH
rain 1hr
in
rain 24hr
in
rain mn
in
humidity
%
barometer
mb
20260508005823 51 117 3.0 9.0 0.00 0.00 0.00 45 1012.1
20260508004324 50 89 0.0 4.0 0.00 0.00 0.00 46 1012.3
20260508002808 49 225 3.0 10.0 0.00 0.00 0.00 47 1012.5
20260508001309 49 182 2.0 7.0 0.00 0.00 0.00 48 1012.8
20260507232821 48 229 0.0 3.0 0.00 0.00 0.00 49 1013.2
20260507231321 48 107 0.0 4.0 0.00 0.00 0.00 51 1013.3
20260507225821 47 5 0.0 4.0 0.00 0.00 0.00 53 1013.4
20260507222807 47 196 5.0 6.0 0.00 0.01 0.00 50 1013.5
20260507221308 47 60 0.0 5.0 0.00 0.01 0.00 54 1013.6
20260507215825 47 114 0.0 3.0 0.00 0.01 0.00 51 1013.5
20260507214310 47 112 1.0 4.0 0.00 0.01 0.00 51 1013.4
20260507212809 47 109 2.0 5.0 0.00 0.01 0.00 52 1013.6
20260507211313 47 199 1.0 5.0 0.00 0.01 0.00 49 1013.4
20260507205811 47 145 1.0 4.0 0.00 0.01 0.00 50 1013.7
20260507201324 45 188 0.0 2.0 0.00 0.01 0.00 56 1013.8
20260507195823 44 91 2.0 5.0 0.00 0.01 0.00 57 1013.8
20260507185818 42 189 1.0 3.0 0.00 0.01 0.00 61 1014.1
20260507184318 41 148 0.0 1.0 0.00 0.01 0.00 63 1014.2
20260507182821 41 121 1.0 3.0 0.00 0.01 0.00 64 1014.4
20260507181322 41 111 2.0 4.0 0.00 0.01 0.00 64 1014.4
20260507175824 40 76 0.0 5.0 0.00 0.01 0.00 66 1014.4
20260507174323 40 79 0.0 5.0 0.00 0.01 0.00 67 1014.5
20260507171311 38 113 1.0 4.0 0.00 0.01 0.00 68 1014.5
20260507165812 38 105 0.0 3.0 0.00 0.01 0.00 70 1014.5
20260507164312 37 121 0.0 2.0 0.00 0.01 0.00 71 1014.5
20260507162814 37 121 2.0 3.0 0.00 0.01 0.00 73 1014.6
20260507161319 36 78 0.0 2.0 0.00 0.01 0.00 75 1014.6
20260507154322 34 203 0.0 0.0 0.00 0.01 0.00 79 1014.5
20260507152821 34 203 0.0 1.0 0.00 0.01 0.00 80 1014.5
20260507145824 33 203 0.0 0.0 0.00 0.01 0.00 82 1014.4
20260507144309 32 203 0.0 0.0 0.00 0.01 0.00 83 1014.4
20260507142810 32 203 0.0 0.0 0.00 0.01 0.00 82 1014.5
20260507141314 32 203 0.0 0.0 0.00 0.01 0.00 82 1014.4
20260507134315 32 203 0.0 0.0 0.00 0.01 0.00 81 1014.4
20260507132818 32 203 0.0 0.0 0.00 0.01 0.00 81 1014.3
20260507131318 32 203 0.0 0.0 0.00 0.01 0.00 80 1014.4
20260507125820 32 203 0.0 0.0 0.00 0.01 0.00 80 1014.4
20260507124320 32 203 0.0 0.0 0.00 0.01 0.00 80 1014.4
20260507122823 32 203 0.0 0.0 0.00 0.01 0.00 79 1014.3
20260507121323 33 203 0.0 0.0 0.00 0.01 0.00 79 1014.3
20260507115825 33 203 0.0 0.0 0.00 0.01 0.00 78 1014.2
20260507112813 34 203 0.0 0.0 0.00 0.01 0.00 77 1014.0
20260507105821 35 203 0.0 0.0 0.00 0.01 0.00 76 1014.0
20260507104321 35 203 0.0 0.0 0.00 0.01 0.00 75 1014.1
20260507102825 35 203 0.0 0.0 0.00 0.01 0.00 76 1014.0
20260507101325 35 203 0.0 0.0 0.00 0.01 0.00 76 1013.8
20260507095823 35 203 0.0 1.0 0.00 0.01 0.00 75 1013.8
20260507094328 36 203 0.0 0.0 0.00 0.01 0.00 75 1013.8
20260507092827 36 203 0.0 0.0 0.00 0.01 0.00 74 1013.6
20260507091311 36 203 0.0 0.0 0.00 0.01 0.00 74 1013.3
20260507085828 37 203 0.0 0.0 0.00 0.01 0.00 73 1013.3
20260507084313 37 203 0.0 0.0 0.00 0.01 0.00 71 1013.3
20260507082812 37 203 0.0 1.0 0.00 0.01 0.00 71 1013.3
20260507081317 37 203 0.0 1.0 0.00 0.01 0.00 70 1013.2
20260507075814 37 203 0.0 0.0 0.00 0.01 0.01 69 1013.1
20260507074319 38 203 0.0 0.0 0.00 0.05 0.01 67 1013.0
20260507072820 38 203 0.0 0.0 0.00 0.05 0.01 66 1012.9
20260507062817 39 203 0.0 2.0 0.00 0.07 0.01 58 1012.5
20260507052813 40 187 2.0 4.0 0.00 0.07 0.01 51 1011.9
20260507045817 41 187 1.0 3.0 0.00 0.07 0.01 48 1011.9
20260507044318 42 187 1.0 4.0 0.00 0.07 0.01 47 1011.9
20260507042821 42 187 0.0 4.0 0.00 0.07 0.01 46 1011.9
20260507041322 42 119 1.0 2.0 0.00 0.07 0.01 46 1011.7
20260507031315 42 275 1.0 4.0 0.00 0.07 0.01 47 1011.5
20260507025814 42 234 2.0 8.0 0.00 0.07 0.01 47 1011.6
20260507021311 44 276 2.0 6.0 0.00 0.09 0.01 44 1011.2
20260507015809 44 213 4.0 6.0 0.00 0.09 0.01 44 1011.2
20260507014313 45 241 1.0 5.0 0.00 0.09 0.01 46 1011.1